Location: Baggett Branch
(32.6074°N, 97.0167°W)
Time: 10:20:26
(UTC+00:00)

NOSS 3-1 (A) - Pass Details

Date: 10 February 2026
Orbit: 613 x 1593 km, 63.4° (Epoch: 10 January)

Event Time Altitude Azimuth Distance (km) Brightness Sun altitude
Rises 12:02:50 0° 191° (S) 2,861 5.9 -15.8°
Reaches altitude 10° 12:05:07 10° 183° (S) 1,968 5.2 -15.3°
Maximum altitude 12:09:10 40° 114° (ESE) 955 4.1 -14.5°
Drops below altitude 10° 12:13:41 10° 45° (NE) 2,194 5.9 -13.5°
Sets 12:16:21 0° 38° (NE) 3,238 6.7 -13.0°
